Terminal Aerodrome Forecast
Issued by NWS Central Illinois

Home | Current Version | Previous Version | Text Only | Print | Product List | Glossary On
Versions: 1 2 3 4 5 6 7 8 9 10 11 12 13 14 15 16 17 18 19 20
000
FTUS43 KILX 202300 RRA
TAFPIA
TAF
KPIA 202341Z 2100/2124 32005KT P6SM FEW060
     FM210300 VRB05KT P6SM FEW040
     FM211300 03008KT P6SM SCT040=

USA.gov is the U.S. government's official web portal to all federal, state and local government web resources and services.